Regional Weather Roundup
Issued by NWS Columbia, SC

Home | Current Version | Previous Version | Text Only | Print | Product List | Glossary On
Versions: 1 2 3 4 5 6 7 8 9 10 11 12 13 14 15 16 17 18 19 20 21 22 23 24 25 26 27 28 29 30 31 32 33 34 35 36 37 38 39 40 41 42 43 44 45 46 47 48 49 50
000
ASUS42 KCAE 270610
RWRCAE
REGIONAL WEATHER ROUNDUP
NATIONAL WEATHER SERVICE COLUMBIA SC
100 AM EST FRI FEB 27 2015

NOTE: "FAIR" INDICATES FEW OR NO CLOUDS BELOW 12,000 FEET WITH NO
SIGNIFICANT WEATHER AND/OR OBSTRUCTIONS TO VISIBILITY.

NOT ALL STATIONS ARE QUALITY CONTROLLED BY THE NATIONAL
WEATHER SERVICE. USE DATA WITH CAUTION...ESPECIALLY
DEWPOINT OBSERVATIONS.

SCZ001>056-GAZ040-063>065-077-270700-
...UPSTATE SOUTH CAROLINA...

CITY           SKY/WX    TMP DP  RH WIND       PRES   REMARKS
ANDERSON       CLOUDY    41  36  82 CALM      30.16R
6HR MIN TEMP:  40; 6HR MAX TEMP:  42;

LIBERTY        CLOUDY    33  34 100 MISG      30.15R FOG
6HR MIN TEMP:  31; 6HR MAX TEMP:  41;

SPARTANBURG    MOCLDY    36 N/A N/A CALM      30.16R
CLEMSON        CLOUDY    39  34  82 NW3       30.17R
6HR MIN TEMP:  39; 6HR MAX TEMP:  43;

GREENVILLE     CLOUDY    37  27  67 N7        30.16R WCI  32
6HR MIN TEMP:  36; 6HR MAX TEMP:  39;

GREENWOOD      CLOUDY    40  37  89 CALM      30.18R
6HR MIN TEMP:  40; 6HR MAX TEMP:  43;

GREER          CLOUDY    36  34  92 CALM      30.14S
6HR MIN TEMP:  34; 6HR MAX TEMP:  38;

ROCK HILL      CLOUDY    33  31  92 CALM      30.17R
6HR MIN TEMP:  30; 6HR MAX TEMP:  34;

CHESTER        CLOUDY    36  34  93 CALM      30.18R
LAURENS        CLOUDY    37  37 100 CALM      30.17R


...CENTRAL SOUTH CAROLINA...

CITY           SKY/WX    TMP DP  RH WIND       PRES   REMARKS
COLUMBIA APT   CLOUDY    34  32  92 CALM      30.18R
6HR MIN TEMP:  34; 6HR MAX TEMP:  44;

COLUMBIA OWENS CLOUDY    35  33  92 CALM      30.20R FOG
6HR MIN TEMP:  35; 6HR MAX TEMP:  43;

DARLINGTON     CLOUDY    34  28  80 N3        30.19S
6HR MIN TEMP:  32; 6HR MAX TEMP:  39;

FLORENCE       CLOUDY    34  31  88 N3        30.17S
6HR MIN TEMP:  34; 6HR MAX TEMP:  40;

ORANGEBURG     MOCLDY    35  32  88 CALM      30.17S FOG
6HR MIN TEMP:  35; 6HR MAX TEMP:  42;

NEWBERRY       CLOUDY    36  34  93 CALM      30.20R
AIKEN          CLOUDY    41  39  93 CALM      30.19R
BARNWELL         N/A     39  39 100 CALM      30.18R
MANNING        FAIR     N/A N/A N/A CALM      30.17S HAZE
CAMDEN           N/A     34  32  93 CALM      30.18R
LANCASTER      LGT RAIN  32  32 100 CALM      30.18R
WINNSBORO      CLOUDY    34  34 100 CALM      30.17R


...EASTERN AND COASTAL SOUTH CAROLINA...

CITY           SKY/WX    TMP DP  RH WIND       PRES   REMARKS
MYRTLE BEACH   CLOUDY    37  32  81 N5        30.19S WCI  34
6HR MIN TEMP:  37; 6HR MAX TEMP:  39;

N MYRTLE BCH   CLOUDY    36  33  89 CALM      30.16S
6HR MIN TEMP:  36; 6HR MAX TEMP:  39;

CONWAY         CLOUDY    36  36 100 CALM      30.17S
MARION         FAIR      36  32  87 CALM      30.18S
HARTSVILLE     FAIR      32  32 100 CALM      30.18R
FLORENCE       CLOUDY    34  31  88 N3        30.17S
6HR MIN TEMP:  34; 6HR MAX TEMP:  40;

DARLINGTON     CLOUDY    34  28  80 N3        30.19S
6HR MIN TEMP:  32; 6HR MAX TEMP:  39;

CHARLESTON APT CLOUDY    38  34  85 NE3       30.17S
6HR MIN TEMP:  38; 6HR MAX TEMP:  42;

MOUNT PLEASANT LGT RAIN  37  36  93 CALM      30.17R
WALTERBORO     CLOUDY    37  37 100 CALM      30.18S
BEAUFORT       CLOUDY    40  37  89 CALM      30.17R
6HR MIN TEMP:  40; 6HR MAX TEMP:  45;



...EASTERN GEORGIA...

CITY           SKY/WX    TMP DP  RH WIND       PRES   REMARKS
AUGUSTA BUSH F CLOUDY    42  38  85 W3        30.18R
6HR MIN TEMP:  41; 6HR MAX TEMP:  45;

AUGUSTA DANIEL CLOUDY    44  37  76 NW3       30.18R
6HR MIN TEMP:  44; 6HR MAX TEMP:  46;

THOMSON        CLOUDY    40  40  97 CALM      30.22R
6HR MIN TEMP:  40; 6HR MAX TEMP:  45;

WASHINGTON     CLOUDY    41  41 100 NW3       30.16S
CLAXTON        MOCLDY    37  37 100 CALM      30.17R
SYLVANIA       CLOUDY    42  41  95 CALM      30.17S
6HR MIN TEMP:  42; 6HR MAX TEMP:  45;

STATESBORO     CLOUDY    43  41  93 CALM      30.17R
6HR MIN TEMP:  42; 6HR MAX TEMP:  45;

SAVANNAH       CLOUDY    43  38  82 E5        30.17R
6HR MIN TEMP:  43; 6HR MAX TEMP:  47;



...SOUTHERN NORTH CAROLINA...

CITY           SKY/WX    TMP DP  RH WIND       PRES   REMARKS
CHARLOTTE      CLOUDY    32  28  85 CALM      30.17R
6HR MIN TEMP:  31; 6HR MAX TEMP:  38;

MONROE         CLOUDY    32  28  85 CALM      30.16R
6HR MIN TEMP:  30; 6HR MAX TEMP:  36;

WADESBORO      CLOUDY    32  31  95 CALM      30.18R
6HR MIN TEMP:  29; 6HR MAX TEMP:  37;

ROCKINGHAM       N/A     29  28  96 CALM      30.18R FOG
6HR MIN TEMP:  29; 6HR MAX TEMP:  36;

RUTHERFORDTON  CLOUDY    32  32 100 CALM      30.16R FOG
6HR MIN TEMP:  30; 6HR MAX TEMP:  37;

ASHEVILLE      CLEAR     29  22  75 NW8       30.13R WCI  21
6HR MIN TEMP:  29; 6HR MAX TEMP:  33;


$$


USA.gov is the U.S. government's official web portal to all federal, state and local government web resources and services.